Weather in Blizhneye

Russia / Belgorod Oblast     50°34′38″N   36°22′57″E
temp.,
°C
wind,
m/s
gust,
m/s
humid.,
%
clouds,
%
prec.,
mm/h
press.,
hPa
HPBL,
m
11 april, sun
sun1100:00+5n33590 0.0 102739
03:00+4nne34641 0.0 102753
06:00+3nne35672 0.0 102868
09:00+8nne58507 0.0 1029569
12:00+12ne673770 0.0 10281211
15:00+14ne68335 0.0 10271228
18:00+12ne6940100 0.0 1026794
21:00+9ne51253100 0.0 1027388
12 april, mon
mon1200:00+7ne5115994 0.0 1027373
03:00+7ne51168100 0.0 1025376
06:00+7ne51182100 0.0 1025343
09:00+9ene6984100 0.0 1024381
12:00+16ene6862100 0.0 1022699
15:00+20e794598 0.0 10211152
18:00+19e4949100 0.0 1020212
21:00+15se395995 0.0 1022159
13 april, tue
tue1300:00+13ese346955 0.0 102256
03:00+11e347999 0.0 102261
06:00+9e3988100 0.0 1022178
09:00+13ese6127690 0.0 1022654
12:00+18se71148100 0.0 10211548
15:00+20se6103667 0.0 10202292
18:00+18se4845100 0.0 1019343
21:00+15se51056100 0.0 1020412
14 april, wed
wed1400:00+13se2476100 0.0 102096
03:00+12se358492 0.0 1020146
06:00+11ese2384100 0.0 101963
09:00+15e356472 0.0 1018526
12:00+18se6844100 0.0 10171584
15:00+19se71138100 0.0 10162579
18:00+14wsw4568100 0.2 1016330
21:00+12wnw237699 0.2 1016118
15 april, thu
thu1500:00+11w017831 0.0 101610
03:00+9wsw228439 0.0 101629
06:00+8s118945 0.0 101610
09:00+13n006667 0.0 1015420
12:00+16se2253100 0.0 10151384
15:00+17se2348100 0.3 10141616
18:00+16s1154100 0.1 1013192
21:00+15nnw2259100 0.1 101217